Probability
0 0 0 0 0 0 0 0 0 0 0 0 0 0 0 0 0 0 0 0 0 0 0 0 0 0 0 0 0 0 0 0 0 0 0 0 0 0 0 0 0 0 0 0
0 0 0 0 0 0 0 0 0 0 0 0 0 0 0 0 0 0 0 0 0 0 0 0 0 0 0 0 0 0 0 0 0 0 0 0 0 0 0 0 0 0 0 0
0 0 0 0 0 0 0 0 0 0 0 0 0 0 0 0 0 0 0 0 0 0 0 0 0 0 0 0 0 0 0 0 0 0 0 0 0 0 0 0 0 0 0 0
0 0 0 0 0 0 0 0 0 0 0 0 0 0 0 0 0 0 0 0 0 0 0 0 0 0 0 0 0 0 0 0 0 0 0 0 0 0 0 0 0 0 0 0
0 0 0 0 0 0 0 0 0 0 0 0 0 0 0 0 0 0 0 0 0 0 0 0 0 0 0 0 0 0 0 0 0 0 0 0 0 0 0 0 0 0 0 0
0 0 0 0 0 0 0 0 0 0 0 0 0 0 0 0 0 0 0 0 0 0 0 0 0 0 0 0 0 0 0 0 0 0 0 0 0 0 0 0 0 0 0 0
0 0 0 0 0 0 0 0 0 0 0 0 0 0 0 0 0 0 0 0 0 0 0 0 0 0 0 0 0 0 0 0 0 0 0 0 0 0 0 0 0 0 0 0
0 0 0 0 0 0 0 0 0 0 0 0 0 0 0 0 0 0 0 0 0 0 0 0 0 0 0 0 0 0 0 0 0 0 0 0 0 0 0 0 0 0 0 0
0 0 0 0 0 0 0 0 0 0 0 0 0 0 0 0 0 0 0 0 0 0 0 0 0 0 0 0 0 0 0 0 0 0 0 0 0 0 0 0 0 0 0 0
0 0 0 0 0 0 0 0 0 0 0 0 0 0 0 0 0 0 0 0 0 0 0 0 0 0 0 0 0 0 0 0 0 0 0 0 0 0 0 0 0 0 0 0
0 0 0 0 0 0 0 0 0 0 0 0 0 0 0 0 0 0 0 0 0 0 0 0 0 0 0 0 0 0 0 0 0 0 0 0 0 0 0 0 0 0 0 0
0 0 0 0 0 0 0 0 0 0 0 0 0 0 0 0 0 0 0 0 0 0 0 0 0 0 0 0 0 0 0 0 0 0 0 0 0 0 0 0 0 0 0 0
0 0 0 0 0 0 0 0 0 0 0 0 0 0 0 0 0 0 0 0 0 0 0 0 0 0 0 0 0 0 0 0 0 0 0 0 0 0 0 0 0 0 0 0
0 0 0 0 0 0 0 0 0 0 0 0 0 0 0 0 0 0 0 0 0 0 0 0 0 0 0 0 0 0 0 0 0 0 0 0 0 0 0 0 0 0 0 0
0 0 0 0 0 0 0 0 0 0 0 0 0 0 0 0 0 0 0 0 0 0 0 0 0 0 0 0 0 0 0 0 0 0 0 0 0 0 0 0 0 0 0 0
0 0 0 0 0 0 0 0 0 0 0 0 0 0 0 0 0 0 0 0 0 0 0 0 0 0 0 0 0 0 0 0 0 0 0 0 0 0 0 0 0 0 0 0
0 0 0 0 0 0 0 0 0 0 0 0 0 0 0 0 0 0 0 0 0 0 0 0 0 0 0 0 0 0 0 0 0 0 0 0 0 0 0 0 0 0 0 0
0 0 0 0 0 0 0 0 0 0 0 0 0 0 0 0 0 0 0 0 0 0 0 0 0 0 0 0 0 0 0 0 0 0 0 0 0 0 0 0 0 0 0 0
0 0 0 0 0 0 0 0 0 0 0 0 0 0 0 0 0 0 0 0 0 0 0 0 0 0 0 0 0 0 0 0 0 0 0 0 0 0 0 0 0 0 0 0
0 0 0 0 0 0 0 0 0 0 0 0 0 0 0 0 0 0 0 0 0 0 0 0 0 0 0 0 0 0 0 0 0 0 0 0 0 0 0 0 0 0 0 0
0 0 0 0 0 0 0 0 0 0 0 0 0 0 0 0 0 0 0 0 0 0 0 0 0 0 0 0 0 0 0 0 0 0 0 0 0 0 0 0 0 0 0 0
0 0 0 0 0 0 0 0 0 0 0 0 0 0 0 0 0 0 0 0 0 0 0 0 0 0 0 0 0 0 0 0 0 0 0 0 0 0 0 0 0 0 0 0
0 0 0 0 0 0 0 0 0 0 0 0 0 0 0 0 0 0 0 0 0 0 0 0 0 0 0 0 0 0 0 0 0 0 0 0 0 0 0 0 0 0 0 0
0 0 0 0 0 0 0 0 0 0 0 0 0 0 0 0 0 0 0 0 0 0 0 0 0 0 0 0 0 0 0 0 0 0 0 0 0 0 0 0 0 0 0 0
0 0 0 0 0 0 0 0 0 0 0 0 0 0 0 0 0 0 0 0 0 0 0 0 0 0 0 0 0 0 0 0 0 0 0 0 0 0 0 0 0 0 0 0
0 0 0 0 0 0 0 0 0 0 0 0 0 0 0 0 0 0 0 0 0 0 0 0 0 0 0 0 0 0 0 0 0 0 0 0 0 0 0 0 0 0 0 0
Wind_Speed
9 7 12 15 17 15 12 13 16 17 8 10 14 16 15 11 9 11 12 12 13 14 12 14 15 13 13 13 14 15 13 11 9 8 7 6 6 6 5 5 7 8 7 6
7 16 18 12 11 11 12 14 16 14 7 8 10 13 11 11 14 15 14 14 15 12 7 11 13 13 14 15 15 15 15 14 12 9 7 5 6 5 6 5 6 7 7 7
20 9 8 13 14 14 15 14 16 15 6 3 3 9 13 14 18 18 15 15 16 13 10 12 14 14 14 15 17 15 15 14 12 10 7 5 4 3 4 6 6 7 8 7
15 14 12 9 10 10 17 10 12 13 10 8 10 9 10 11 11 13 14 14 15 12 10 14 15 16 17 15 13 13 14 13 13 12 11 11 9 8 8 7 6 7 8 7
12 8 12 16 16 13 12 1 2 4 6 8 6 13 9 9 12 13 14 15 15 12 11 15 16 16 13 13 13 13 13 13 13 13 13 12 9 7 6 6 9 8 7 7
16 5 4 5 1 2 2 2 2 2 3 10 12 16 12 11 14 11 11 12 14 9 9 11 12 11 10 11 11 13 14 14 14 14 13 13 11 9 9 9 9 7 5 6
10 12 7 4 2 2 5 5 3 5 7 13 12 15 10 11 11 12 12 14 10 7 9 10 12 13 13 15 15 15 16 16 15 15 15 14 12 11 12 11 10 8 6 5
8 10 15 13 13 11 11 10 10 9 10 9 7 14 9 9 11 12 13 9 6 7 7 9 11 13 14 16 16 17 19 18 16 17 16 13 12 9 9 10 9 9 7 6
9 10 4 8 7 6 9 11 8 5 8 11 11 9 7 6 7 10 10 8 8 8 9 9 10 12 14 16 19 20 19 17 17 17 14 13 13 11 9 9 8 7 6 6
7 10 1 3 2 5 2 3 4 7 6 13 17 14 10 12 18 18 12 9 10 10 10 11 12 14 14 15 15 14 15 16 14 13 14 12 11 10 9 8 9 8 8 8
10 9 6 3 11 11 7 5 7 6 7 8 14 17 3 3 6 8 9 11 13 13 14 14 13 13 12 10 11 13 14 13 13 14 13 12 11 10 9 9 9 9 8 9
6 5 8 11 10 11 13 16 14 10 12 8 10 26 7 3 6 9 10 11 10 12 12 12 12 11 11 12 12 14 14 14 14 13 11 11 10 11 10 9 9 9 9 8
3 3 5 8 7 4 6 9 14 13 9 12 17 28 7 9 8 6 7 7 7 8 9 8 9 10 12 13 13 14 15 15 12 12 12 12 13 13 12 10 9 9 9 8
5 7 13 19 16 9 7 9 9 11 13 19 26 29 27 15 12 10 9 10 10 9 9 9 9 10 11 13 14 15 15 15 13 14 14 15 15 14 12 10 10 10 10 9
6 11 19 26 28 28 28 24 18 19 21 23 26 24 30 24 14 13 11 9 9 9 10 11 11 11 12 12 13 14 14 13 14 15 15 15 12 12 11 11 11 10 10 9
12 13 15 26 29 29 30 29 30 32 29 30 30 34 33 26 22 21 16 11 11 12 11 11 12 11 12 13 14 14 13 13 13 14 14 12 12 13 12 12 11 11 10 9
10 11 12 20 24 22 28 35 38 33 34 32 33 37 31 27 29 24 15 12 13 12 10 10 11 12 12 12 13 14 13 11 13 13 12 13 13 13 13 12 11 11 10 9
16 18 14 12 15 30 22 21 30 36 39 36 28 25 29 32 26 15 12 13 11 11 11 10 9 9 9 9 9 9 10 12 13 13 13 13 14 14 13 12 12 11 9 9
26 25 20 14 22 20 11 15 22 27 30 27 28 30 31 26 16 17 19 14 13 13 11 8 7 6 5 6 8 10 11 12 13 14 15 15 16 15 14 14 13 11 10 8
26 26 25 23 24 17 13 17 19 16 20 20 24 24 19 13 10 15 14 8 9 8 5 3 3 2 3 5 9 12 12 13 15 15 14 14 15 16 15 14 12 10 9 8
13 21 28 29 30 17 8 9 5 13 10 9 11 11 9 8 9 10 9 5 3 2 2 2 3 3 4 6 9 11 12 14 12 11 12 12 13 13 14 12 11 10 9 8
10 11 15 18 25 14 10 6 4 10 15 13 13 13 12 11 11 11 10 8 5 3 1 1 2 2 3 7 10 11 12 10 11 13 14 13 13 12 12 13 11 10 9 8
6 4 6 6 8 9 8 10 14 13 13 11 13 14 14 13 12 12 11 10 8 6 4 2 3 4 4 7 9 11 10 12 14 14 14 13 13 11 12 13 13 11 8 7
6 5 6 9 10 18 20 13 8 6 8 10 11 12 12 13 13 12 10 10 9 8 7 5 6 7 8 9 9 8 11 14 15 16 15 14 14 13 11 9 10 9 9 8
12 14 15 18 16 14 9 11 14 12 9 10 10 10 11 12 14 13 12 12 11 10 8 8 10 12 13 11 11 10 13 16 16 16 15 14 13 13 12 10 8 9 7 8
10 14 16 19 19 19 22 17 15 14 14 14 14 15 12 11 15 16 14 13 12 11 9 9 12 13 13 14 15 14 16 18 18 17 16 14 12 11 11 11 9 11 11 12
Wind_Direction
189 206 217 216 212 227 252 268 273 275 266 195 221 240 250 254 248 246 249 249 247 240 223 188 176 168 163 165 167 169 172 175 171 171 173 167 178 179 180 175 168 165 164 164
206 225 233 242 245 245 250 259 267 277 275 217 236 253 260 259 257 252 251 256 258 253 224 171 166 165 169 171 172 174 177 180 179 181 180 169 164 183 183 175 170 170 168 171
221 220 208 230 241 249 250 247 256 261 259 228 290 278 251 248 247 250 247 247 252 244 213 174 171 173 172 178 179 180 181 181 180 174 171 163 144 132 162 175 178 180 174 172
247 247 242 235 230 232 254 245 254 258 261 246 194 257 226 230 239 237 236 241 250 243 200 173 173 178 183 183 176 178 180 181 180 176 180 178 180 183 185 179 178 177 174 173
235 212 217 232 236 233 253 179 262 270 255 263 231 267 238 218 238 239 229 232 247 244 193 174 177 181 180 174 175 180 181 185 182 182 185 190 197 191 170 163 165 169 174 176
258 275 239 236 75 266 123 108 246 237 251 251 207 239 253 202 225 227 222 231 241 226 175 163 164 164 169 171 176 182 188 191 186 186 189 195 198 186 170 167 169 172 174 175
255 242 206 139 148 214 163 164 253 242 221 240 192 225 244 192 196 194 208 229 226 171 154 157 162 171 177 182 186 189 193 197 191 191 196 199 198 189 184 178 176 174 173 172
237 239 192 184 197 192 193 186 193 224 239 256 223 237 234 200 199 198 206 205 157 155 168 177 180 183 187 189 190 192 198 200 195 196 200 197 195 194 192 183 178 178 174 166
241 257 167 185 184 194 181 212 217 233 278 280 250 246 228 210 229 220 209 169 177 186 193 196 193 192 194 194 196 197 199 200 199 198 194 196 195 194 188 180 171 166 160 151
254 273 249 39 64 281 271 211 181 197 231 266 272 267 255 228 221 220 213 194 205 205 207 206 204 201 201 201 201 198 200 203 201 193 193 196 193 188 176 170 173 165 156 149
216 243 229 171 205 204 195 223 209 210 205 222 275 272 197 191 183 194 207 207 211 209 211 211 209 204 199 194 194 199 202 200 199 198 192 188 183 175 170 172 172 165 159 156
223 233 246 234 229 220 214 208 193 205 234 226 244 263 177 208 194 193 208 214 213 212 211 208 202 191 189 194 196 200 202 202 203 196 186 182 172 170 173 173 169 163 160 158
208 201 266 294 277 252 241 236 229 232 240 239 244 263 240 235 249 230 221 218 215 216 214 207 195 190 194 198 199 201 201 203 197 184 182 178 177 177 177 170 165 163 160 157
227 198 223 238 247 264 252 258 250 239 240 247 247 261 276 262 260 255 234 220 219 219 219 216 209 203 201 200 200 202 203 198 189 184 183 185 184 178 170 163 163 165 162 161
171 225 234 244 252 260 263 265 263 254 250 253 260 262 267 270 260 257 241 227 229 228 224 222 220 217 212 207 205 204 202 192 183 183 186 186 172 162 159 161 163 163 164 163
196 226 233 241 241 243 251 254 252 250 251 252 257 260 260 268 272 268 262 253 247 240 231 225 223 222 220 213 210 205 200 187 177 181 182 167 160 159 161 161 162 164 161 159
201 219 227 243 240 242 240 238 242 245 245 244 248 253 263 265 262 264 270 258 244 241 232 224 225 225 223 218 209 203 192 171 169 172 164 160 158 159 159 159 163 167 166 164
221 227 236 245 232 235 235 232 235 242 247 247 247 253 255 257 263 268 261 255 251 247 245 240 233 232 227 217 203 182 159 160 164 163 161 159 157 158 158 163 170 169 165 169
227 232 240 240 243 249 243 227 227 234 245 247 249 250 253 258 269 267 258 245 238 241 241 234 220 218 217 197 166 147 151 156 162 168 168 164 161 160 164 171 173 169 164 166
227 228 238 243 246 243 231 230 235 243 252 248 250 254 258 258 250 260 269 251 232 231 223 206 178 164 170 159 142 146 158 166 178 176 168 162 162 164 169 171 166 160 157 156
223 225 232 243 250 250 236 248 247 235 262 293 286 294 300 274 261 283 302 303 261 232 176 138 144 169 174 153 147 159 171 184 174 155 152 156 161 163 162 158 155 149 148 151
245 239 239 243 246 248 13 341 296 325 340 355 5 4 358 344 340 343 343 341 341 331 327 139 168 190 166 160 162 176 187 167 147 149 153 156 158 158 158 153 147 148 148 150
292 324 328 311 303 328 346 324 310 313 322 344 346 341 338 333 330 329 326 323 319 304 283 238 206 203 192 186 183 190 176 153 150 152 156 156 156 158 159 155 150 150 154 158
281 291 282 290 290 305 306 304 304 325 330 325 317 313 314 309 304 299 293 288 284 275 253 225 204 210 214 202 200 189 161 156 155 159 160 161 161 159 158 154 153 155 161 166
297 302 293 286 289 293 299 325 329 325 317 312 310 303 298 298 294 291 288 282 272 262 244 218 212 218 217 198 196 180 165 160 162 164 166 169 167 160 157 156 159 159 163 166
281 288 290 293 305 303 303 313 326 327 328 329 323 312 304 296 293 292 287 283 278 269 251 227 218 218 212 195 193 182 171 168 168 170 173 172 167 160 152 146 145 159 156 164